This demonstration page uses our WeatherBlox Daily Observations layout. Learn more.

Left ArrowRight Arrow

Hourly Observations for April 4, 2023

Temp ( °F °C ) Dew Point ( °F °C ) Humidity (%) Winds ( mph kmh ) Pressure ( in mb ) Visibility ( mi km ) Precip ( " mm )
12:53 am 00:53 Clear 43 6.1 27 -2.8 53 53 N 5 7 30.14 1021 10 16 0.00 0.00
1:53 am 01:53 Clear 42 5.6 26 -3.3 53 53 NNW 6 9 30.15 1021 10 16 0.00 0.00
2:53 am 02:53 Clear 35 1.7 28 -2.2 75 75 NE 6 9 30.15 1021 10 16 0.00 0.00
3:53 am 03:53 Clear 36 2.2 28 -2.2 73 73 N 7 11 30.15 1021 10 16 0.00 0.00
4:53 am 04:53 Clear 36 2.2 27 -2.8 69 69 N 5 7 30.16 1021 10 16 0.00 0.00
5:53 am 05:53 Clear 35 1.7 28 -2.2 75 75 N 5 7 30.17 1022 10 16 0.00 0.00
6:53 am 06:53 Sunny 34 1.1 28 -2.2 79 79 N 5 7 30.19 1022 10 16 0.00 0.00
7:53 am 07:53 Sunny 40 4.4 27 -2.8 59 59 NNW 5 7 30.19 1023 10 16 0.00 0.00
8:53 am 08:53 Sunny 43 6.1 29 -1.7 57 57 VRB 3 6 30.21 1023 10 16 0.00 0.00
9:53 am 09:53 Sunny 48 8.9 24 -4.4 39 39 VRB 6 9 30.20 1023 10 16 0.00 0.00
10:53 am 10:53 Sunny 51 10.6 24 -4.4 34 34 NE 3 6 30.20 1023 10 16 0.00 0.00
11:53 am 11:53 Sunny 54 12.2 21 -6.1 27 27 VRB 3 6 30.19 1022 10 16 0.00 0.00
12:53 pm 12:53 Sunny 55 12.8 18 -7.8 23 23 VRB 3 6 30.17 1022 10 16 0.00 0.00
1:53 pm 13:53 Sunny 57 13.9 21 -6.1 24 24 undefined N/A 30.16 1021 10 16 0.00 0.00
2:53 pm 14:53 Sunny 58 14.4 20 -6.7 23 23 NW 9 15 30.15 1021 10 16 0.00 0.00
3:53 pm 15:53 Sunny 58 14.4 22 -5.6 25 25 W 10 17 30.13 1020 10 16 0.00 0.00
4:53 pm 16:53 Partly Cloudy 59 15 22 -5.6 24 24 WSW 5 7 30.11 1020 10 16 0.00 0.00
5:53 pm 17:53 Partly Cloudy 57 13.9 22 -5.6 25 25 SSW 5 7 30.11 1020 10 16 0.00 0.00
6:53 pm 18:53 Cloudy 57 13.9 26 -3.3 30 30 SSE 7 11 30.11 1020 10 16 0.00 0.00
7:53 pm 19:53 Partly Cloudy 54 12.2 26 -3.3 34 34 WNW 8 13 30.11 1020 10 16 0.00 0.00
8:53 pm 20:53 Clear 51 10.6 27 -2.8 39 39 WNW 6 9 30.14 1021 10 16 0.00 0.00
9:53 pm 21:53 Mostly Clear 50 10 28 -2.2 42 42 NW 5 7 30.14 1021 10 16 0.00 0.00
10:53 pm 22:53 Clear 50 10 28 -2.2 42 42 Calm 30.15 1021 10 16 0.00 0.00
11:53 pm 23:53 Clear 44 6.7 31 -0.6 60 60 Calm 30.16 1022 10 16 0.00 0.00

Powered by Vaisala Xweather